Location: Madrid
(40.4000°N, 3.6830°W)
Time: 15:39:47

ISS - Pass Details

Date: 14 March 2018
Orbit: 403 x 406 km, 51.6° (Epoch: 17 March)

Event Time Altitude Azimuth Distance (km) Brightness Sun altitude
Exits shadow 05:20:06 13° 8° (N) 1,302 -1.0 -24.9°
Maximum altitude 05:20:10 13° 9° (N) 1,301 -1.0 -24.9°
Drops below altitude 10° 05:21:46 10° 38° (NE) 1,464 -0.3 -24.6°
Sets 05:24:46 0° 68° (ENE) 2,322 1.5 -24.0°
